Location: Borovka
(49.7741°N, 14.5280°E)
Time: 07:32:39
(UTC+00:00)

SJ 16-02 - Pass Details

Date: 17 November 2025
Orbit: 585 x 594 km, 75.0° (Epoch: 13 December)

Event Time Altitude Azimuth Distance (km) Brightness Sun altitude
Rises 16:32:04 0° 164° (SSE) 2,824 4.7 -12.2°
Reaches altitude 10° 16:34:40 10° 149° (SSE) 1,927 3.7 -12.6°
Maximum altitude 16:37:58 22° 99° (E) 1,323 2.5 -13.1°
Enters shadow 16:38:48 21° 82° (E) 1,371 2.5 -13.2°
